Погода в Василевичах

Беларусь     52°14′38″N   29°49′51″E
темп.,
°C
ветер,
м/с
пор.,
м/с
влажн.,
%
обл.,
%
осадки,
мм/ч
давл.,
гПа
погр.,
м
26 февраля, пт
пт2600:00+3з499986 0.0 1025186
03:00+3з499985 0.0 1024244
06:00+5зюз51099100 0.0 1021259
09:00+3з4119693 0.0 1020292
12:00+5з5109472 0.0 1019359
15:00+6з5129386 0.0 1018582
18:00+5з41191100 0.0 1017273
21:00+3з41290100 0.0 1017366
27 февраля, сб
сб2700:00+2з41290100 0.0 1016365
03:00+2з51291100 0.0 1016472
06:00+2зсз51289100 0.1 1014561
09:00+2зсз61296100 0.1 1015635
12:00+3зсз51192100 0.0 1015617
15:00+2сз51096100 0.4 1016502
18:00+2сз5109796 0.1 1017538
21:00+2ссз6109798 0.3 1019557
28 февраля, вс
вс2800:00+1ссз5997100 0.2 1020491
03:000ссз499398 0.3 1022438
06:00−1ссз599390 0.1 1023464
09:00−1ссз588988 0.1 1024558
12:00+1ссз577792 0.1 1024922
15:00+2сз577396 0.2 1024975
18:00+1сз3778100 0.0 1024616
21:000сз3698100 0.1 1025296
1 марта, пн
пн100:000зсз249895 0.1 1026153
03:000зсз239898 0.1 1027116
06:00+1сз379891 0.2 1027351
09:00+1сз259896 0.2 1028320
12:00+2ссз4782100 0.1 1029667
15:00+2ссз4693100 0.1 1030432
18:00+1ссз1298100 0.1 103067
21:00+1ссз1197100 0.1 103222
2 марта, вт
вт200:00+1зсз129798 0.0 103322
03:00+1зюз359398 0.0 1032158
06:00+1зюз41095100 0.0 1031321
09:00+2з61293100 0.0 1029450
12:00+4сз6107999 0.0 1029610
15:00+7сз61072100 0.0 1028697
18:00+6сз5117998 0.0 1028461
21:00+3сз4128770 0.0 1029366